CW3094 Weather Reports


Display with metric or nautical units.
time (UTC)temp
F
wind
direction
speed
MPH
gust
MPH
rain 1hr
in
rain 24hr
in
rain mn
in
humidity
%
barometer
mb
20170817192404 84 208 1.0 5.0 0.00 0.00 0.00 44 1015.5
20170817191401 82 228 2.0 5.0 0.00 0.00 0.00 53 1015.6
20170817190402 81 37 1.0 2.0 0.00 0.00 0.00 49 1015.8
20170817185403 81 279 1.0 7.0 0.00 0.00 0.00 50 1015.9
20170817184401 80 276 3.0 8.0 0.00 0.00 0.00 48 1016.1
20170817183402 80 341 2.0 3.0 0.00 0.00 0.00 52 1016.3
20170817182403 79 285 0.0 5.0 0.00 0.00 0.00 48 1016.4
20170817181401 79 211 1.0 5.0 0.00 0.00 0.00 52 1016.7
20170817180403 78 336 3.0 6.0 0.00 0.00 0.00 48 1016.7
20170817175404 78 42 0.0 3.0 0.00 0.00 0.00 54 1016.9
20170817174401 77 95 1.0 6.0 0.00 0.00 0.00 55 1017.2
20170817173403 76 94 3.0 7.0 0.00 0.00 0.00 54 1017.2
20170817172405 76 84 2.0 5.0 0.00 0.00 0.00 60 1017.4
20170817171400 75 47 1.0 5.0 0.00 0.00 0.00 54 1017.3
20170817170403 75 135 1.0 3.0 0.00 0.00 0.00 63 1017.5
20170817165404 74 225 2.0 5.0 0.00 0.00 0.00 63 1017.4
20170817164401 74 232 1.0 3.0 0.00 0.00 0.00 68 1017.8
20170817163402 73 288 0.0 3.0 0.00 0.00 0.00 64 1017.8
20170817162404 72 83 0.0 2.0 0.00 0.00 0.00 64 1017.6
20170817161401 72 210 0.0 5.0 0.00 0.00 0.00 68 1018.1
20170817160403 71 325 1.0 3.0 0.00 0.00 0.00 72 1018.1
20170817155404 71 55 3.0 6.0 0.00 0.00 0.00 72 1018.2
20170817154401 70 87 1.0 5.0 0.00 0.00 0.00 71 1018.3
20170817153403 70 242 1.0 5.0 0.00 0.00 0.00 74 1018.4
20170817152405 69 143 0.0 6.0 0.00 0.00 0.00 78 1018.5
20170817151401 68 137 1.0 5.0 0.00 0.00 0.00 76 1018.7
20170817150403 68 182 1.0 3.0 0.00 0.00 0.00 78 1018.7
20170817145403 68 78 0.0 5.0 0.00 0.00 0.00 79 1018.7
20170817144404 67 59 2.0 6.0 0.00 0.00 0.00 80 1018.7
20170817143403 66 123 0.0 3.0 0.00 0.00 0.00 82 1018.8
20170817142405 66 103 1.0 2.0 0.00 0.00 0.00 85 1018.8
20170817141400 66 350 1.0 5.0 0.00 0.00 0.00 88 1019.0
20170817140402 65 116 0.0 3.0 0.00 0.00 0.00 91 1019.1
20170817135404 65 44 2.0 3.0 0.00 0.00 0.00 92 1019.2
20170817134401 64 105 1.0 5.0 0.00 0.00 0.00 90 1019.2
20170817133401 64 72 0.0 5.0 0.00 0.00 0.00 89 1019.2
20170817132403 64 9 1.0 3.0 0.00 0.00 0.00 91 1019.3
20170817131401 63 27 0.0 0.0 0.00 0.00 0.00 96 1019.2
20170817130403 63 27 0.0 1.0 0.00 0.00 0.00 99 1019.3
20170817125404 62 314 0.0 0.0 0.00 0.00 0.00 99 1019.2
20170817124402 62 314 0.0 0.0 0.00 0.00 0.00 99 1019.3
20170817123403 61 314 0.0 0.0 0.00 0.00 0.00 100 1019.1
20170817122404 60 314 0.0 0.0 0.00 0.00 0.00 100 1019.1
20170817121402 58 314 0.0 1.0 0.00 0.00 0.00 100 1019.1
20170817120403 57 30 0.0 3.0 0.00 0.00 0.00 100 1019.1
20170817115405 57 16 0.0 0.0 0.00 0.00 0.00 100 1019.0
20170817114402 56 16 0.0 0.0 0.00 0.00 0.00 100 1019.1
20170817113404 55 16 0.0 1.0 0.00 0.00 0.00 100 1018.9
20170817112404 55 343 0.0 2.0 0.00 0.00 0.00 100 1018.9
20170817111402 54 333 0.0 0.0 0.00 0.00 0.00 100 1018.8
20170817110403 54 333 0.0 0.0 0.00 0.00 0.00 100 1018.7
20170817105404 54 333 0.0 0.0 0.00 0.00 0.00 100 1018.5
20170817104402 54 333 0.0 0.0 0.00 0.00 0.00 100 1018.4
20170817103404 54 333 0.0 0.0 0.00 0.00 0.00 100 1018.4
20170817102406 54 333 0.0 0.0 0.00 0.00 0.00 100 1018.3
20170817101403 54 333 0.0 3.0 0.00 0.00 0.00 100 1018.3
20170817100403 54 4 0.0 0.0 0.00 0.00 0.00 100 1018.3
20170817095404 54 4 0.0 0.0 0.00 0.00 0.00 100 1018.2
20170817094402 54 4 0.0 2.0 0.00 0.00 0.00 100 1018.1
20170817093402 54 273 0.0 0.0 0.00 0.00 0.00 100 1018.2
20170817092405 55 273 0.0 5.0 0.00 0.00 0.00 100 1018.1
20170817091410 54 335 0.0 2.0 0.00 0.00 0.00 100 1017.7
20170817090403 55 352 0.0 1.0 0.00 0.00 0.00 100 1017.8
20170817085405 55 0 0.0 1.0 0.00 0.00 0.00 100 1017.7
20170817084401 55 27 0.0 5.0 0.00 0.00 0.00 100 1017.7
20170817083404 56 95 1.0 3.0 0.00 0.00 0.00 100 1017.5
20170817082405 56 275 0.0 1.0 0.00 0.00 0.00 100 1017.5
20170817081402 56 47 0.0 0.0 0.00 0.00 0.00 100 1017.4
20170817080404 56 47 0.0 5.0 0.00 0.00 0.00 100 1017.3
20170817075405 56 3 0.0 3.0 0.00 0.00 0.00 100 1017.2
20170817074402 57 271 0.0 5.0 0.00 0.00 0.00 100 1017.2
20170817073404 57 319 1.0 5.0 0.00 0.00 0.00 100 1017.3
20170817072406 57 310 1.0 5.0 0.00 0.00 0.00 100 1017.4
20170817071403 57 330 0.0 5.0 0.00 0.00 0.00 100 1017.3
20170817070404 57 323 1.0 3.0 0.00 0.00 0.00 100 1017.3
20170817065405 57 326 0.0 3.0 0.00 0.00 0.00 100 1017.3
20170817064332 57 307 0.0 2.0 0.00 0.00 0.00 100 1017.4
20170817063338 57 297 1.0 3.0 0.00 0.00 0.00 100 1017.3
20170817062335 57 4 0.0 1.0 0.00 0.00 0.00 100 1017.3
20170817061336 58 311 1.0 5.0 0.00 0.00 0.00 100 1017.4
20170817060338 58 168 0.0 0.0 0.00 0.00 0.00 100 1017.3
20170817055340 58 168 0.0 0.0 0.00 0.00 0.00 100 1017.3
20170817054341 58 168 0.0 0.0 0.00 0.00 0.00 100 1017.3
20170817053342 58 168 0.0 0.0 0.00 0.00 0.00 100 1017.3
20170817052343 59 168 0.0 0.0 0.00 0.00 0.00 100 1017.3
20170817051344 59 168 0.0 0.0 0.00 0.00 0.00 99 1017.3
20170817050346 59 178 1.0 5.0 0.00 0.00 0.00 99 1017.1
20170817045347 60 314 1.0 5.0 0.00 0.00 0.00 99 1017.0
20170817044349 59 320 1.0 5.0 0.00 0.00 0.00 97 1016.8
20170817043350 60 298 1.0 3.0 0.00 0.00 0.00 97 1016.9
20170817042352 60 295 0.0 0.0 0.00 0.00 0.00 96 1016.9
20170817041353 60 295 0.0 0.0 0.00 0.00 0.00 96 1017.1
20170817040355 61 295 0.0 0.0 0.00 0.00 0.00 95 1017.1
20170817035356 62 295 0.0 0.0 0.00 0.00 0.00 94 1016.9
20170817034358 62 295 0.0 0.0 0.00 0.00 0.00 92 1016.8
20170817033359 63 295 0.0 3.0 0.00 0.00 0.00 90 1016.9
20170817032400 64 349 1.0 6.0 0.00 0.00 0.00 89 1016.8
20170817031402 64 244 3.0 8.0 0.00 0.00 0.00 86 1016.8
20170817030403 64 321 2.0 8.0 0.00 0.00 0.00 87 1016.7
20170817025405 64 319 3.0 7.0 0.00 0.00 0.00 89 1016.7
20170817024300 64 276 2.0 5.0 0.00 0.00 0.00 89 1016.6
20170817023302 64 160 1.0 6.0 0.00 0.00 0.00 90 1016.6
20170817022303 65 248 2.0 7.0 0.00 0.00 0.00 90 1016.6
20170817021305 64 60 2.0 7.0 0.00 0.00 0.00 91 1016.4
20170817020306 64 298 0.0 6.0 0.00 0.00 0.00 94 1016.4
20170817015308 64 227 1.0 6.0 0.00 0.00 0.00 94 1016.2
20170817014309 64 256 0.0 3.0 0.00 0.00 0.00 95 1016.2
20170817013310 64 332 0.0 0.0 0.00 0.00 0.00 95 1016.1
20170817012311 64 335 0.0 0.0 0.00 0.00 0.00 95 1016.1
20170817011313 65 335 0.0 0.0 0.00 0.00 0.00 95 1015.9
20170817010315 65 335 0.0 0.0 0.00 0.00 0.00 95 1015.8
20170817005315 65 335 0.0 0.0 0.00 0.00 0.00 95 1015.6
20170817004317 66 335 0.0 0.0 0.00 0.00 0.00 95 1015.5
20170817003319 66 335 0.0 0.0 0.00 0.00 0.00 95 1015.4
20170817002320 66 335 0.0 3.0 0.00 0.00 0.00 94 1015.4
20170817001320 67 210 0.0 0.0 0.00 0.00 0.00 92 1015.3
20170817000322 68 210 0.0 0.0 0.00 0.00 0.00 91 1015.1
20170816235324 68 210 0.0 0.0 0.00 0.00 0.00 89 1014.9
20170816234326 69 210 0.0 0.0 0.00 0.00 0.00 87 1014.7
20170816233326 70 210 0.0 1.0 0.00 0.00 0.00 84 1014.6
20170816232327 71 278 0.0 3.0 0.00 0.00 0.00 84 1014.6
20170816231329 71 297 0.0 0.0 0.00 0.00 0.00 81 1014.5
20170816230330 72 297 0.0 0.0 0.00 0.00 0.00 79 1014.4
20170816225332 73 337 0.0 2.0 0.00 0.00 0.00 78 1014.3
20170816224334 73 246 0.0 0.0 0.00 0.00 0.00 76 1014.3
20170816223334 74 246 0.0 0.0 0.00 0.00 0.00 72 1014.2
20170816222336 75 246 1.0 5.0 0.00 0.00 0.00 69 1014.2
20170816221337 75 276 2.0 5.0 0.00 0.00 0.00 70 1014.0
20170816220339 75 258 0.0 5.0 0.00 0.00 0.00 68 1014.1
20170816215340 76 323 1.0 5.0 0.00 0.00 0.00 64 1014.0
20170816214342 77 328 1.0 5.0 0.00 0.00 0.00 63 1014.1
20170816213342 78 267 2.0 9.0 0.00 0.00 0.00 58 1014.1
20170816212344 79 266 0.0 5.0 0.00 0.00 0.00 59 1014.1
20170816211345 80 315 1.0 6.0 0.00 0.00 0.00 56 1014.1
20170816210347 80 280 1.0 3.0 0.00 0.00 0.00 57 1014.1
20170816205347 80 247 0.0 3.0 0.00 0.00 0.00 54 1014.1
20170816204349 82 257 2.0 8.0 0.00 0.01 0.00 50 1013.7
20170816203350 83 304 2.0 8.0 0.00 0.02 0.00 49 1014.1
20170816202352 81 44 2.0 7.0 0.00 0.02 0.00 55 1014.0
20170816201354 80 7 1.0 5.0 0.00 0.02 0.00 57 1014.0
20170816200354 82 320 2.0 5.0 0.00 0.02 0.00 52 1013.9
20170816195356 83 230 3.0 9.0 0.00 0.02 0.00 53 1013.8
20170816194358 82 256 1.0 5.0 0.00 0.02 0.00 53 1013.9
20170816193401 80 16 2.0 13.0 0.00 0.02 0.00 51 1014.0